Leadville, CO

5:11 AM MST on January 24, 2018 (GMT -0700)
Lake County

Weather History for KLXV - March, 2012

Change the Weather History Date:

Tuesday, March 27, 2012

  Actual Average Record
Temperature  
Mean Temperature 38 °F -  
Max Temperature 50 °F 39 °F 54 °F (1986)
Min Temperature 25 °F 14 °F -9 °F (2016)
Degree Days  
Heating Degree Days 27 39  
Month to date heating degree days 1028 1120  
Since 1 July heating degree days 8534 8830  
Cooling Degree Days 0 0  
Month to date cooling degree days 0 0  
Year to date cooling degree days 0 0  
Moisture  
Dew Point 8 °F    
Average Humidity 34    
Maximum Humidity 55    
Minimum Humidity 13    
Precipitation  
Precipitation 0.00 in 0.03 in 0.47 in (1985)
Month to date precipitation 0.22 0.80  
Year to date precipitation 2.40 2.12  
Snow  
Snow 0.00 in - - ()
Month to date snowfall 0.0  
Snow Depth 0.00 in    
Sea Level Pressure  
Sea Level Pressure 29.87 in    
Wind  
Wind Speed 8 mph (NNE)    
Max Wind Speed 20 mph    
Max Gust Speed 25 mph    
Visibility 10 miles    
Events      
T = Trace of Precipitation, MM = Missing Value Source: NWS Daily Summary

Daily Weather History Graph

Daily Weather History Graph

Search for Another Location

Airport or City:

Trip Planner

Search our weather history database for the weather conditions in past years. The results will help you decide how hot, cold, wet, or windy it might be!

Date:

Astronomy

Mar. 27, 2012 Rise Set
Actual Time 6:56 AM MDT 7:24 PM MDT
Civil Twilight 6:29 AM MDT 7:51 PM MDT
Nautical Twilight 5:58 AM MDT 8:23 PM MDT
Astronomical Twilight 5:26 AM MDT 8:55 PM MDT
Moon 9:31 AM MDT (3/27) No Moon Set
Length of Visible Light 13h 21m
Length of Day
12h 27m
Waxing Crescent, 22% of the Moon is Illuminated
Mar 27
Waxing Crescent
Mar 30
First Quarter
Apr 6
Full
Apr 13
Last Quarter
Apr 21
New

Hourly Weather History & Observations

Time (MDT) Temp. Windchill Dew Point Humidity Pressure Visibility Wind Dir Wind Speed Gust Speed Precip Events Conditions
12:53 AM 28.0 °F 18.6 °F 9.0 °F 45% 29.73 in 10.0 mi East 10.4 mph - N/A   Clear
1:53 AM 30.0 °F 21.7 °F 8.1 °F 40% 29.73 in 10.0 mi East 9.2 mph - N/A   Clear
2:53 AM 30.9 °F 24.3 °F 9.0 °F 40% 29.73 in 10.0 mi Variable 6.9 mph - N/A   Clear
3:53 AM 28.9 °F 19.8 °F 10.0 °F 45% 29.76 in 10.0 mi ENE 10.4 mph - N/A   Clear
4:53 AM 30.0 °F 21.1 °F 10.0 °F 43% 29.80 in 10.0 mi NE 10.4 mph - N/A   Clear
5:53 AM 28.0 °F 20.0 °F 10.0 °F 47% 29.84 in 10.0 mi NE 8.1 mph - N/A   Clear
6:53 AM 25.0 °F 16.3 °F 10.9 °F 55% 29.91 in 10.0 mi ENE 8.1 mph - N/A   Clear
7:53 AM 26.1 °F 18.4 °F 10.0 °F 51% 29.96 in 10.0 mi NE 6.9 mph - N/A   Clear
8:53 AM 33.1 °F 24.4 °F 8.1 °F 35% 29.94 in 10.0 mi NE 11.5 mph 18.4 mph N/A   Clear
9:53 AM 37.9 °F 32.1 °F 6.1 °F 27% 29.92 in 10.0 mi North 8.1 mph - N/A   Clear
10:53 AM 41.0 °F 37.1 °F 6.1 °F 24% 29.93 in 10.0 mi Variable 5.8 mph - N/A   Clear
11:53 AM 43.0 °F 38.8 °F 5.0 °F 21% 29.88 in 10.0 mi North 6.9 mph 19.6 mph N/A   Clear
12:53 PM 44.1 °F 39.0 °F 6.1 °F 21% 29.90 in 10.0 mi North 9.2 mph 23.0 mph N/A   Clear
1:53 PM 48.0 °F - 5.0 °F 17% 29.85 in 10.0 mi Variable 4.6 mph 16.1 mph N/A   Clear
2:53 PM 48.9 °F - -0.9 °F 13% 29.82 in 10.0 mi West 11.5 mph 20.7 mph N/A   Clear
3:53 PM 50.0 °F - 1.0 °F 13% 29.83 in 10.0 mi WSW 18.4 mph 24.2 mph N/A   Clear
4:53 PM 48.9 °F - 3.0 °F 15% 29.83 in 10.0 mi West 17.3 mph 25.3 mph N/A   Clear
5:53 PM 48.0 °F - 6.1 °F 18% 29.86 in 10.0 mi West 8.1 mph - N/A   Clear
6:53 PM 46.0 °F 43.1 °F 5.0 °F 19% 29.90 in 10.0 mi NW 5.8 mph - N/A   Mostly Cloudy
7:53 PM 39.9 °F 37.8 °F 9.0 °F 28% 29.95 in 10.0 mi North 3.5 mph - N/A   Partly Cloudy
8:53 PM 39.0 °F 35.7 °F 9.0 °F 29% 29.95 in 10.0 mi North 4.6 mph - N/A   Mostly Cloudy
9:53 PM 33.1 °F 28.7 °F 10.9 °F 40% 29.96 in 10.0 mi ENE 4.6 mph - N/A   Clear
10:53 PM 30.9 °F 25.2 °F 12.9 °F 47% 29.97 in 10.0 mi NE 5.8 mph - N/A   Partly Cloudy
11:53 PM 28.9 °F - 14.0 °F 54% 29.94 in 10.0 mi Calm Calm - N/A   Clear